TimeEDT,TemperatureF,Dew PointF,Humidity,Sea Level PressureIn,VisibilityMPH,Wind Direction,Wind SpeedMPH,Gust SpeedMPH,PrecipitationIn,Events,Conditions,WindDirDegrees,DateUTC
12:53 AM,69.1,63.0,81,30.06,10.0,Calm,Calm,-,N/A,,Clear,0,2013-04-03 04:53:00
1:53 AM,66.9,63.0,87,30.04,10.0,ENE,6.9,-,N/A,,Clear,60,2013-04-03 05:53:00
2:53 AM,68.0,63.0,84,30.03,9.0,ESE,8.1,-,N/A,,Clear,110,2013-04-03 06:53:00
3:53 AM,68.0,64.9,90,30.01,9.0,ESE,8.1,-,N/A,,Clear,110,2013-04-03 07:53:00
4:53 AM,66.9,64.9,93,30.01,8.0,ESE,8.1,-,N/A,,Clear,110,2013-04-03 08:53:00
5:53 AM,66.9,64.9,93,30.01,7.0,ESE,6.9,-,N/A,,Clear,120,2013-04-03 09:53:00
6:53 AM,68.0,64.9,90,30.01,8.0,ESE,6.9,-,N/A,,Clear,120,2013-04-03 10:53:00
7:53 AM,68.0,66.0,93,30.03,6.0,ESE,6.9,-,N/A,,Clear,110,2013-04-03 11:53:00
8:53 AM,71.1,66.0,84,30.04,8.0,ESE,8.1,-,N/A,,Clear,110,2013-04-03 12:53:00
9:53 AM,77.0,66.0,69,30.03,10.0,SE,15.0,-,N/A,,Clear,140,2013-04-03 13:53:00
10:53 AM,80.1,66.0,62,30.03,10.0,SE,13.8,18.4,N/A,,Clear,130,2013-04-03 14:53:00
11:53 AM,82.9,62.1,49,30.02,10.0,SSE,11.5,-,N/A,,Clear,150,2013-04-03 15:53:00
12:53 PM,84.9,64.0,49,29.99,10.0,ESE,17.3,20.7,N/A,,Clear,120,2013-04-03 16:53:00
1:53 PM,86.0,66.0,51,29.98,10.0,South,16.1,20.7,N/A,,Partly Cloudy,180,2013-04-03 17:53:00
2:53 PM,86.0,66.0,51,29.98,10.0,SSE,13.8,21.9,N/A,,Partly Cloudy,160,2013-04-03 18:53:00
3:53 PM,84.0,68.0,58,29.96,10.0,South,16.1,20.7,N/A,,Scattered Clouds,190,2013-04-03 19:53:00
4:53 PM,82.9,68.0,60,29.96,10.0,South,10.4,20.7,N/A,,Scattered Clouds,170,2013-04-03 20:53:00
5:53 PM,82.0,66.9,60,29.96,10.0,SSW,13.8,-,N/A,,Clear,210,2013-04-03 21:53:00
6:53 PM,80.1,66.0,62,29.97,10.0,South,9.2,-,N/A,,Partly Cloudy,190,2013-04-03 22:53:00
7:53 PM,75.9,69.1,79,29.97,10.0,South,9.2,-,N/A,,Clear,180,2013-04-03 23:53:00
8:53 PM,75.0,68.0,79,29.99,10.0,South,6.9,-,N/A,,Clear,180,2013-04-04 00:53:00
9:53 PM,75.9,68.0,76,30.02,10.0,SSE,5.8,-,N/A,,Mostly Cloudy,160,2013-04-04 01:53:00
10:53 PM,75.0,68.0,79,30.04,10.0,SSE,6.9,-,N/A,,Mostly Cloudy,150,2013-04-04 02:53:00
11:53 PM,73.9,68.0,82,30.03,10.0,ESE,6.9,-,N/A,,Clear,110,2013-04-04 03:53:00